This is the latest recevied weather packets stored in our database for station/object N5TDX. If no packets are shown the sender has not sent any weather packets the latest 1 day(s).
| Time | Temp. | Humidity | Pressure | Rain* | Wind** | Luminosity | Snow |
|---|---|---|---|---|---|---|---|
| 1777988070 | 22.78° C | 80% | 1002.1 hPa | 0 mm | 0.89 m/s, 233° | - | - |
| 1777987765 | 22.78° C | 81% | 1002 hPa | 0 mm | 0.45 m/s, 283° | - | - |
| 1777987462 | 22.22° C | 81% | 1001.9 hPa | 0 mm | 0.45 m/s, 266° | - | - |
| 1777987160 | 22.22° C | 82% | 1002.1 hPa | 0 mm | 0.45 m/s, 240° | - | - |
| 1777986856 | 22.22° C | 82% | 1001.8 hPa | 0 mm | 0.45 m/s, 252° | - | - |
| 1777986554 | 21.67° C | 83% | 1002 hPa | 0 mm | 0.45 m/s, 145° | - | - |
| 1777986252 | 21.67° C | 83% | 1001.8 hPa | 0 mm | 0 m/s | - | - |
| 1777985949 | 21.67° C | 84% | 1001.9 hPa | 0 mm | 0.45 m/s, 141° | - | - |
| 1777985647 | 21.67° C | 84% | 1002.1 hPa | 0 mm | 0.45 m/s, 255° | - | - |
| 1777985343 | 21.67° C | 84% | 1001.7 hPa | 0 mm | 0.89 m/s, 184° | - | - |
| 1777985040 | 21.11° C | 84% | 1001.6 hPa | 0 mm | 0.45 m/s, 282° | - | - |
| 1777984736 | 21.11° C | 85% | 1001.6 hPa | 0 mm | 0.45 m/s, 250° | - | - |
| 1777984433 | 21.11° C | 85% | 1001.9 hPa | 0 mm | 0.45 m/s, 246° | - | - |
| 1777984128 | 21.11° C | 85% | 1001.3 hPa | 0 mm | 0.45 m/s, 14° | - | - |
| 1777983826 | 21.11° C | 85% | 1001.5 hPa | 0 mm | 1.34 m/s, 205° | - | - |
| 1777983523 | 21.11° C | 85% | 1001.5 hPa | 0 mm | 0.89 m/s, 188° | - | - |
| 1777983220 | 21.11° C | 85% | 1001.5 hPa | 0 mm | 0.89 m/s, 87° | - | - |
| 1777982916 | 21.11° C | 85% | 1001.5 hPa | 0 mm | 1.79 m/s, 250° | - | - |
| 1777982612 | 21.11° C | 85% | 1001.4 hPa | 0 mm | 1.79 m/s, 270° | - | - |
| 1777982311 | 21.11° C | 85% | 1001.4 hPa | 0 mm | 0.89 m/s, 309° | - | - |
| 1777982008 | 21.11° C | 85% | 1001.1 hPa | 0 mm | 1.34 m/s, 243° | - | - |
| 1777981706 | 21.11° C | 85% | 1001 hPa | 0 mm | 0.45 m/s, 239° | - | - |
| 1777981402 | 21.11° C | 85% | 1001.1 hPa | 0 mm | 0.45 m/s, 333° | - | - |
| 1777981099 | 21.11° C | 85% | 1001.4 hPa | 0 mm | 0.45 m/s, 263° | - | - |
| 1777980795 | 21.11° C | 85% | 1001.2 hPa | 0 mm | 0.89 m/s, 239° | - | - |
* Rain latest hour (hover to see other rain measurements)
** Current wind speed in m/s (hover to see current wind gust speed)